Flag for Poland Weather past 2 weeks in Gdynia, Poland

Now
37 °F

Clear.


Feels Like: 37 °F
Forecast: 34 / 54 °F
Wind: 2 mph from Southwest

Location: Gdansk-Rebiechowo


UV Index: 0 (Low)

Visibility: 10 mi


Pressure: 30.39 "Hg

Humidity: 56%

Dew point: 23 °F

Location of GdyniaLocation

Historic Weather in Gdynia

°F

Gdynia temperature yesterday

Maximum temperature yesterday: 50 °F (at 12:00 PM)
Minimum temperature yesterday: 36 °F (at 5:00 AM)
Average temperature yesterday: 43 °F

Past Weeks' High & Low Weather Summary

 TemperatureHumidityPressure
High70 °F (Apr 8, 1:30 PM)100% (Apr 2, 4:30 AM)30.39 "Hg (Apr 2, 4:30 AM)
Low25 °F (Apr 2, 4:30 AM)28% (Apr 5, 4:30 PM)29.53 "Hg (Apr 14, 1:00 PM)
Average44 °F76%29.94 "Hg
* Reported Apr 1 9:00 PM — Apr 16 9:30 PM, Gdynia, Weather by CustomWeather, © 2014

Note: Actual official high and low records may vary slightly from our data, if they occured in-between our weather recording intervals... More about our weather records

Advertising

Historic Weather Conditions — Data for Previous 24 hours

 ConditionsComfort  
Time TempWeatherWind HumidityBarometerVisibility
9:30 PM
Apr 16
37 °FClear.1 mph52%30.39 "Hg10 mi
9:00 PM37 °FClear.2 mph52%30.39 "Hg10 mi
8:30 PM39 °FSunny.2 mph45%30.39 "Hg10 mi
8:00 PM41 °FSunny.3 mph42%30.36 "Hg10 mi
7:30 PM41 °FSunny.3 mph42%30.36 "Hg10 mi
7:00 PM43 °FSunny.7 mph36%30.36 "Hg10 mi
6:30 PM45 °FSunny.8 mph34%30.36 "Hg10 mi
6:00 PM45 °FSunny.9 mph37%30.36 "Hg10 mi
5:30 PM46 °FPassing clouds.8 mph32%30.39 "HgN/A
5:00 PM46 °FPassing clouds.8 mph29%30.39 "HgN/A
4:30 PM46 °FSunny.10 mph32%30.36 "Hg10 mi
4:00 PM46 °FSunny.12 mph34%30.36 "Hg10 mi
3:30 PM46 °FPassing clouds.12 mph34%30.39 "HgN/A
3:00 PM46 °FPassing clouds.12 mph32%30.39 "HgN/A
2:30 PM46 °FPassing clouds.12 mph34%30.39 "HgN/A
2:00 PM48 °FPassing clouds.8 mph34%30.39 "HgN/A
1:30 PM48 °FPassing clouds.10 mph32%30.39 "HgN/A
1:00 PM48 °FPassing clouds.9 mph34%30.39 "HgN/A
12:30 PM46 °FPassing clouds.8 mph40%30.39 "HgN/A
12:00 PM46 °FPassing clouds.12 mph40%30.39 "HgN/A
11:30 AM46 °FSunny.14 mph43%30.36 "Hg10 mi
11:00 AM46 °FPassing clouds.12 mph40%30.36 "HgN/A
10:30 AM45 °FPassing clouds.13 mph49%30.36 "HgN/A
10:00 AM45 °FPassing clouds.14 mph49%30.36 "HgN/A
9:30 AM43 °FSunny.14 mph57%30.33 "Hg10 mi
9:00 AM43 °FPassing clouds.14 mph57%30.33 "HgN/A
8:30 AM41 °FSunny.14 mph66%30.33 "Hg10 mi
8:00 AM39 °FSunny.14 mph70%30.30 "Hg10 mi
7:30 AM37 °FSunny.14 mph75%30.30 "Hg10 mi
7:00 AM36 °FSunny.7 mph81%30.27 "Hg10 mi
6:30 AM34 °FClear.5 mph81%30.27 "Hg10 mi
6:00 AM32 °FClear.7 mph87%30.27 "Hg10 mi
5:30 AM32 °FClear.7 mph87%30.24 "Hg10 mi
5:00 AM32 °FClear.8 mph87%30.24 "Hg10 mi
4:30 AM32 °FClear.5 mph87%30.24 "Hg10 mi
4:00 AM32 °FClear.6 mph80%30.21 "Hg10 mi
3:30 AM34 °FClear.7 mph81%30.21 "Hg10 mi
3:00 AM34 °FClear.8 mph81%30.21 "Hg10 mi
1:00 AM36 °FPassing clouds.10 mph81%30.18 "HgN/A
12:30 AM36 °FPassing clouds.9 mph81%30.18 "HgN/A
12:00 AM37 °FClear.13 mph75%30.18 "Hg10 mi
11:00 PM
Apr 15
37 °FPassing clouds.9 mph75%30.15 "HgN/A
10:30 PM37 °FPassing clouds.9 mph81%30.15 "HgN/A
10:00 PM37 °FPassing clouds.10 mph81%30.12 "HgN/A
Weather by CustomWeather, © 2014

See weather overview